Location: Newark
(54.6833°N, 25.2833°E)
Time: 11:14:41
(UTC+00:00)

Transit 4A - All Passes

Search period start: 20 November 2019 00:00
Search period end: 30 November 2019 00:00
Orbit: 869 x 976 km, 66.8° (Epoch: 20 November)

Date Brightness Start Highest point End Pass type
(mag) Time Alt. Az. Time Alt. Az. Time Alt. Az.
20 Nov - 00:07:52 10° WNW 00:12:58 26° N 00:17:56 10° NE visible
20 Nov - 01:55:39 10° NW 02:01:02 32° NNE 02:06:17 10° E visible
20 Nov - 03:42:17 10° NW 03:48:17 76° NE 03:54:08 10° SE visible
20 Nov - 05:29:10 10° NW 05:34:09 29° WSW 05:39:03 10° S daylight
20 Nov - 18:57:13 10° SSE 19:02:00 24° ESE 19:06:42 10° ENE night (unlit)
20 Nov - 20:41:27 10° SW 20:47:41 87° SE 20:53:47 10° NE night (unlit)
20 Nov - 22:29:02 10° W 22:34:43 37° NNW 22:40:16 10° NE night (unlit)
21 Nov - 00:17:40 10° NW 00:22:42 26° N 00:27:37 10° NE visible
21 Nov - 02:05:07 10° NW 02:10:40 37° NNE 02:16:05 10° E visible
21 Nov - 03:51:40 10° NW 03:57:39 84° SW 04:03:29 10° SE visible
21 Nov - 05:38:56 10° WNW 05:43:12 21° WSW 05:47:25 10° SSW daylight
21 Nov - 19:05:40 10° S 19:11:04 32° ESE 19:16:23 10° NE night (unlit)
21 Nov - 20:50:51 10° SW 20:57:05 74° NW 21:03:09 10° NE night (unlit)
21 Nov - 22:38:53 10° W 22:44:21 32° NNW 22:49:42 10° NE visible
22 Nov - 00:27:24 10° NW 00:32:26 26° N 00:37:22 10° ENE visible
22 Nov - 02:14:32 10° NW 02:20:16 43° NNE 02:25:50 10° ESE visible
22 Nov - 04:01:03 10° NW 04:06:57 64° SW 04:12:41 10° SSE visible
22 Nov - 05:49:02 10° WNW 05:52:11 15° WSW 05:55:17 10° SW daylight
22 Nov - 19:14:25 10° S 19:20:14 43° ESE 19:25:56 10° NE night (unlit)
22 Nov - 21:00:23 10° WSW 21:06:31 59° NW 21:12:30 10° NE night (unlit)
22 Nov - 22:48:45 10° WNW 22:54:02 29° NNW 22:59:11 10° NE visible
23 Nov - 00:37:02 10° NW 00:42:09 28° NNE 00:47:10 10° ENE visible
23 Nov - 02:23:56 10° NW 02:29:48 53° NE 02:35:30 10° ESE visible
23 Nov - 04:10:30 10° NW 04:16:10 48° WSW 04:21:43 10° SSE visible
23 Nov - 17:41:23 10° SE 17:44:15 14° ESE 17:47:06 10° ENE night (unlit)
23 Nov - 19:23:22 10° SSW 19:29:27 57° ESE 19:35:23 10° NE night (unlit)
23 Nov - 21:10:03 10° WSW 21:16:01 48° NW 21:21:52 10° NE night (unlit)
23 Nov - 22:58:37 10° WNW 23:03:45 27° N 23:08:45 10° NE visible
24 Nov - 00:46:36 10° NW 00:51:52 30° NNE 00:57:00 10° ENE visible
24 Nov - 02:33:18 10° NW 02:39:15 66° NE 02:45:04 10° SE visible
24 Nov - 04:20:01 10° NW 04:25:20 35° WSW 04:30:32 10° S visible
24 Nov - 17:49:02 10° SSE 17:53:14 19° ESE 17:57:22 10° ENE night (unlit)
24 Nov - 19:32:31 10° SSW 19:38:44 75° SE 19:44:47 10° NE night (unlit)
24 Nov - 21:19:47 10° W 21:25:35 40° NNW 21:31:14 10° NE night (unlit)
24 Nov - 23:08:26 10° WNW 23:13:28 26° N 23:18:25 10° NE visible
25 Nov - 00:56:06 10° NW 01:01:32 33° NNE 01:06:49 10° E visible
25 Nov - 02:42:40 10° NW 02:48:40 83° NE 02:54:31 10° SE visible
25 Nov - 04:29:40 10° WNW 04:34:25 26° WSW 04:39:06 10° SSW visible
25 Nov - 17:57:15 10° SSE 18:02:16 26° ESE 18:07:13 10° ENE night (unlit)
25 Nov - 19:41:50 10° SW 19:48:05 86° NW 19:54:10 10° NE night (unlit)
25 Nov - 21:29:36 10° W 21:35:11 35° NNW 21:40:39 10° NE night (unlit)
25 Nov - 23:18:12 10° NW 23:23:13 26° N 23:28:07 10° ENE visible
26 Nov - 01:05:32 10° NW 01:11:08 39° NNE 01:16:36 10° E visible
26 Nov - 02:52:03 10° NW 02:58:00 77° SW 03:03:49 10° SSE visible
26 Nov - 04:39:32 10° WNW 04:43:27 19° WSW 04:47:19 10° SSW visible
26 Nov - 18:05:49 10° S 18:11:23 35° ESE 18:16:50 10° NE night (unlit)
26 Nov - 19:51:18 10° SW 19:57:29 68° NW 20:03:31 10° NE night (unlit)
26 Nov - 21:39:28 10° W 21:44:50 31° NNW 21:50:07 10° NE night (unlit)
26 Nov - 23:27:53 10° NW 23:32:57 27° N 23:37:54 10° ENE visible
27 Nov - 01:14:57 10° NW 01:20:42 46° NNE 01:26:20 10° ESE visible
27 Nov - 03:01:28 10° NW 03:07:17 58° WSW 03:12:57 10° SSE visible
27 Nov - 04:49:54 10° WNW 04:52:24 13° WSW 04:54:53 10° SW visible
27 Nov - 16:34:33 10° ESE 16:35:34 10° E 16:36:34 10° E night (unlit)
27 Nov - 18:14:39 10° SSW 18:20:33 48° ESE 18:26:20 10° NE visible
27 Nov - 20:00:53 10° WSW 20:06:57 55° NW 20:12:52 10° NE night (unlit)
27 Nov - 21:49:20 10° WNW 21:54:32 28° NNW 21:59:38 10° NE night (unlit)
27 Nov - 23:37:31 10° NW 23:42:40 28° NNE 23:47:43 10° ENE visible
28 Nov - 01:24:19 10° NW 01:30:13 57° NE 01:35:58 10° ESE visible
28 Nov - 03:10:57 10° NW 03:16:29 43° WSW 03:21:55 10° S visible
28 Nov - 16:41:04 10° SE 16:44:30 15° ESE 16:47:53 10° ENE visible
28 Nov - 18:23:41 10° SSW 18:29:48 63° SE 18:35:47 10° NE visible
28 Nov - 20:10:35 10° WSW 20:16:28 45° NNW 20:22:14 10° NE night (unlit)
28 Nov - 21:59:11 10° WNW 22:04:16 26° N 22:09:13 10° NE night (unlit)
28 Nov - 23:47:03 10° NW 23:52:20 31° NNE 23:57:32 10° E visible
29 Nov - 01:33:41 10° NW 01:39:40 72° NE 01:45:29 10° SE visible
29 Nov - 03:20:30 10° NW 03:25:37 31° WSW 03:30:39 10° S visible
29 Nov - 16:48:58 10° SSE 16:53:30 22° ESE 16:57:57 10° ENE visible
29 Nov - 18:32:53 10° SW 18:39:06 82° SE 18:45:10 10° NE visible
29 Nov - 20:20:21 10° W 20:26:03 38° NNW 20:31:36 10° NE night (unlit)
29 Nov - 22:08:59 10° WNW 22:13:59 26° N 22:18:54 10° NE night (unlit)
